Location: Crescent
(42.8242°N, 73.7329°W)
Time: 20:56:05
(UTC+00:00)

Vanguard 2 Rocket - Pass Details

Date: 15 February 2026
Orbit: 553 x 3287 km, 32.9° (Epoch: 5 March)

Event Time Altitude Azimuth Distance (km) Brightness Sun altitude
Rises 21:00:42 0° 263° (W) 6,515 12.5 13.5°
Reaches altitude 10° 21:05:47 10° 259° (WSW) 5,107 12.4 12.7°
Maximum altitude 21:18:21 47° 192° (SSW) 2,061 9.3 10.7°
Drops below altitude 10° 21:25:39 10° 121° (ESE) 3,024 9.3 9.5°
Sets 21:27:55 0° 114° (ESE) 3,722 9.7 9.2°
